| time (UTC) | temp C | wind direction | speed KPH | gust KPH | rain 1hr cm | rain 24hr cm | rain mn cm | humidity % | barometer mb |
| 20260506103052 | 4 | 17 | 11.3 | 16.1 | 0.00 | 0.03 | 0.00 | 79 | 1010.1 |
| 20260506101542 | 4 | 15 | 11.3 | 17.7 | 0.00 | 0.03 | 0.00 | 79 | 1009.7 |
| 20260506100039 | 4 | 33 | 8.0 | 20.9 | 0.00 | 0.03 | 0.00 | 79 | 1009.7 |
| 20260506094537 | 5 | 356 | 9.7 | 16.1 | 0.00 | 0.03 | 0.00 | 77 | 1009.5 |
| 20260506093034 | 5 | 12 | 6.4 | 17.7 | 0.00 | 0.03 | 0.00 | 76 | 1009.3 |
| 20260506091534 | 5 | 328 | 11.3 | 17.7 | 0.00 | 0.03 | 0.00 | 74 | 1009.2 |
| 20260506090042 | 5 | 357 | 8.0 | 12.9 | 0.00 | 0.03 | 0.00 | 75 | 1009.1 |
| 20260506084526 | 5 | 333 | 4.8 | 6.4 | 0.00 | 0.03 | 0.00 | 76 | 1009.2 |
| 20260506083025 | 5 | 311 | 3.2 | 6.4 | 0.00 | 0.03 | 0.00 | 76 | 1009.3 |
| 20260506081523 | 5 | 315 | 3.2 | 9.7 | 0.00 | 0.03 | 0.00 | 76 | 1009.3 |
| 20260506073021 | 6 | 345 | 3.2 | 14.5 | 0.00 | 0.03 | 0.00 | 77 | 1009.1 |
| 20260506071518 | 6 | 340 | 8.0 | 12.9 | 0.00 | 0.03 | 0.00 | 78 | 1009.1 |
| 20260506061504 | 7 | 349 | 8.0 | 20.9 | 0.00 | 0.03 | 0.00 | 75 | 1008.5 |
| 20260506050108 | 9 | 297 | 6.4 | 11.3 | 0.00 | 0.03 | 0.00 | 62 | 1008.0 |
| 20260506044551 | 9 | 311 | 4.8 | 11.3 | 0.00 | 0.03 | 0.00 | 61 | 1008.1 |
| 20260506043044 | 9 | 293 | 3.2 | 9.7 | 0.00 | 0.03 | 0.00 | 61 | 1008.3 |
| 20260506041541 | 9 | 288 | 3.2 | 9.7 | 0.00 | 0.03 | 0.00 | 61 | 1008.4 |
| 20260506040042 | 10 | 276 | 1.6 | 8.0 | 0.00 | 0.03 | 0.03 | 59 | 1008.5 |
| 20260506034542 | 10 | 276 | 1.6 | 8.0 | 0.00 | 0.03 | 0.03 | 58 | 1008.3 |
| 20260506033041 | 10 | 238 | 1.6 | 8.0 | 0.00 | 0.03 | 0.03 | 57 | 1008.3 |
| 20260506031546 | 10 | 281 | 3.2 | 9.7 | 0.00 | 0.03 | 0.03 | 56 | 1008.3 |
| 20260506030036 | 10 | 272 | 6.4 | 12.9 | 0.00 | 0.03 | 0.03 | 55 | 1008.5 |
| 20260506024542 | 10 | 278 | 3.2 | 12.9 | 0.00 | 0.03 | 0.03 | 55 | 1008.5 |
| 20260506023033 | 10 | 268 | 3.2 | 9.7 | 0.00 | 0.03 | 0.03 | 55 | 1008.7 |
| 20260506021532 | 11 | 244 | 4.8 | 8.0 | 0.00 | 0.03 | 0.03 | 55 | 1008.1 |
| 20260506020029 | 11 | 302 | 4.8 | 9.7 | 0.00 | 0.03 | 0.03 | 55 | 1008.2 |
| 20260506014530 | 11 | 293 | 4.8 | 9.7 | 0.00 | 0.03 | 0.03 | 54 | 1008.0 |
| 20260506013026 | 11 | 248 | 3.2 | 9.7 | 0.00 | 0.03 | 0.03 | 56 | 1007.8 |
| 20260506011525 | 11 | 274 | 1.6 | 12.9 | 0.00 | 0.03 | 0.03 | 60 | 1007.9 |
| 20260506010024 | 11 | 270 | 1.6 | 6.4 | 0.00 | 0.03 | 0.03 | 63 | 1007.9 |
| 20260506004522 | 11 | 243 | 0.0 | 4.8 | 0.00 | 0.03 | 0.03 | 67 | 1007.8 |
| 20260506003020 | 11 | 239 | 0.0 | 3.2 | 0.00 | 0.03 | 0.03 | 66 | 1007.5 |
| 20260506001519 | 11 | 250 | 0.0 | 3.2 | 0.00 | 0.03 | 0.03 | 65 | 1007.3 |
| 20260506000018 | 12 | 234 | 3.2 | 8.0 | 0.00 | 0.03 | 0.03 | 64 | 1007.2 |
| 20260505234520 | 12 | 248 | 1.6 | 6.4 | 0.00 | 0.03 | 0.03 | 64 | 1006.9 |
| 20260505233017 | 12 | 247 | 1.6 | 11.3 | 0.00 | 0.03 | 0.03 | 63 | 1006.9 |
| 20260505231519 | 12 | 237 | 3.2 | 11.3 | 0.00 | 0.03 | 0.03 | 62 | 1006.9 |
| 20260505230018 | 12 | 285 | 6.4 | 14.5 | 0.00 | 0.03 | 0.03 | 62 | 1007.0 |
| 20260505224516 | 12 | 270 | 4.8 | 11.3 | 0.00 | 0.03 | 0.03 | 64 | 1007.0 |
| 20260505223016 | 12 | 267 | 6.4 | 12.9 | 0.00 | 0.03 | 0.03 | 65 | 1007.1 |
| 20260505221514 | 12 | 271 | 3.2 | 17.7 | 0.00 | 0.03 | 0.03 | 66 | 1007.0 |
| 20260505220013 | 12 | 274 | 6.4 | 11.3 | 0.00 | 0.03 | 0.03 | 64 | 1007.0 |
| 20260505214523 | 12 | 253 | 6.4 | 14.5 | 0.00 | 0.03 | 0.03 | 65 | 1006.9 |
| 20260505213015 | 12 | 250 | 4.8 | 14.5 | 0.00 | 0.03 | 0.03 | 65 | 1007.1 |
| 20260505211512 | 12 | 266 | 4.8 | 11.3 | 0.00 | 0.03 | 0.03 | 66 | 1007.0 |
| 20260505210011 | 12 | 266 | 6.4 | 16.1 | 0.00 | 0.03 | 0.03 | 65 | 1007.0 |
| 20260505204510 | 12 | 286 | 8.0 | 16.1 | 0.00 | 0.03 | 0.03 | 65 | 1007.0 |
| 20260505203010 | 12 | 274 | 4.8 | 11.3 | 0.00 | 0.03 | 0.03 | 65 | 1007.0 |
| 20260505201512 | 12 | 236 | 4.8 | 19.3 | 0.00 | 0.03 | 0.03 | 65 | 1007.1 |
| 20260505200009 | 12 | 260 | 8.0 | 17.7 | 0.00 | 0.03 | 0.03 | 65 | 1007.2 |
| 20260505194508 | 12 | 272 | 6.4 | 17.7 | 0.00 | 0.03 | 0.03 | 65 | 1007.2 |
| 20260505193009 | 12 | 269 | 6.4 | 12.9 | 0.00 | 0.03 | 0.03 | 71 | 1007.2 |
| 20260505191507 | 12 | 270 | 6.4 | 14.5 | 0.00 | 0.03 | 0.03 | 74 | 1007.2 |
| 20260505190007 | 12 | 264 | 6.4 | 11.3 | 0.00 | 0.03 | 0.03 | 75 | 1007.2 |
| 20260505184509 | 11 | 245 | 1.6 | 4.8 | 0.00 | 0.03 | 0.03 | 79 | 1007.0 |
| 20260505183007 | 11 | 121 | 3.2 | 9.7 | 0.00 | 0.03 | 0.03 | 81 | 1006.9 |
| 20260505181504 | 10 | 127 | 3.2 | 8.0 | 0.00 | 0.03 | 0.03 | 81 | 1006.9 |
| 20260505180003 | 10 | 128 | 4.8 | 9.7 | 0.00 | 0.03 | 0.03 | 81 | 1006.7 |
| 20260505174506 | 9 | 93 | 1.6 | 6.4 | 0.00 | 0.03 | 0.03 | 82 | 1006.8 |
| 20260505173001 | 10 | 123 | 3.2 | 8.0 | 0.00 | 0.03 | 0.03 | 81 | 1006.7 |
| 20260505171506 | 10 | 206 | 1.6 | 4.8 | 0.03 | 0.03 | 0.03 | 80 | 1006.7 |
| 20260505170101 | 9 | 162 | 0.0 | 1.6 | 0.03 | 0.03 | 0.03 | 78 | 1006.9 |
| 20260505164606 | 9 | 167 | 0.0 | 3.2 | 0.03 | 0.03 | 0.03 | 80 | 1006.7 |
| 20260505163059 | 9 | 169 | 1.6 | 3.2 | 0.03 | 0.03 | 0.03 | 78 | 1006.7 |
| 20260505161606 | 9 | 301 | 0.0 | 1.6 | 0.00 | 0.00 | 0.00 | 72 | 1006.8 |
| 20260505153101 | 10 | 333 | 6.4 | 11.3 | 0.00 | 0.00 | 0.00 | 70 | 1006.6 |
| 20260505151603 | 10 | 308 | 1.6 | 3.2 | 0.00 | 0.00 | 0.00 | 66 | 1006.1 |
| 20260505140107 | 10 | 23 | 3.2 | 6.4 | 0.00 | 0.00 | 0.00 | 68 | 1005.4 |
| 20260505124537 | 10 | 15 | 8.0 | 14.5 | 0.00 | 0.00 | 0.00 | 68 | 1004.3 |
| 20260505123037 | 9 | 41 | 6.4 | 14.5 | 0.00 | 0.00 | 0.00 | 69 | 1004.3 |
| 20260505121538 | 9 | 43 | 9.7 | 17.7 | 0.00 | 0.00 | 0.00 | 70 | 1004.0 |
| 20260505120042 | 9 | 348 | 6.4 | 11.3 | 0.00 | 0.00 | 0.00 | 74 | 1003.4 |
| 20260505114527 | 9 | 4 | 6.4 | 14.5 | 0.00 | 0.00 | 0.00 | 75 | 1003.3 |
| 20260505113026 | 10 | 30 | 11.3 | 19.3 | 0.00 | 0.00 | 0.00 | 77 | 1003.3 |
| 20260505111524 | 10 | 333 | 8.0 | 17.7 | 0.00 | 0.00 | 0.00 | 79 | 1002.6 |